QPF
0.00 0.01 0.01 0.01 0.01 0.00 0.00 0.00 0.00 0.00 0.00 0.00 0.00 0.00 0.00 0.00 0.00 0.00 0.00 0.00 0.00 0.00 0.00 0.02 0.03 0.02 0.02 0.02 0.02 0.01 0.01 0.01 0.01 0.01 0.03 0.03 0.02 0.02 0.03 0.02 0.02 0.03 0.03 0.03 0.04 0.04 0.04 0.05 0.04
0.00 0.00 0.01 0.01 0.00 0.00 0.00 0.00 0.00 0.00 0.00 0.00 0.00 0.00 0.00 0.00 0.00 0.00 0.00 0.00 0.00 0.00 0.00 0.01 0.02 0.03 0.02 0.02 0.01 0.01 0.03 0.03 0.02 0.02 0.02 0.02 0.02 0.02 0.02 0.02 0.02 0.02 0.02 0.02 0.03 0.04 0.04 0.04 0.04
0.00 0.01 0.01 0.01 0.00 0.00 0.00 0.00 0.00 0.00 0.00 0.00 0.00 0.00 0.00 0.00 0.00 0.00 0.00 0.00 0.00 0.00 0.00 0.01 0.03 0.04 0.05 0.03 0.02 0.02 0.03 0.03 0.03 0.02 0.02 0.02 0.02 0.03 0.03 0.03 0.02 0.02 0.02 0.02 0.02 0.03 0.03 0.03 0.03
0.01 0.01 0.01 0.01 0.00 0.00 0.00 0.00 0.00 0.00 0.00 0.00 0.00 0.00 0.00 0.00 0.00 0.00 0.00 0.01 0.01 0.01 0.01 0.02 0.04 0.03 0.04 0.04 0.03 0.03 0.04 0.03 0.03 0.02 0.02 0.03 0.03 0.02 0.02 0.02 0.02 0.02 0.03 0.02 0.02 0.03 0.03 0.02 0.02
0.01 0.01 0.01 0.00 0.00 0.00 0.00 0.00 0.00 0.00 0.00 0.00 0.00 0.00 0.00 0.00 0.00 0.00 0.01 0.01 0.01 0.01 0.02 0.03 0.04 0.03 0.03 0.04 0.05 0.04 0.04 0.04 0.05 0.05 0.03 0.03 0.02 0.01 0.01 0.02 0.02 0.02 0.03 0.02 0.03 0.03 0.03 0.03 0.01
0.02 0.01 0.00 0.00 0.00 0.00 0.00 0.00 0.00 0.00 0.00 0.00 0.00 0.00 0.00 0.00 0.00 0.01 0.01 0.02 0.03 0.02 0.03 0.03 0.05 0.04 0.03 0.04 0.05 0.05 0.06 0.05 0.05 0.06 0.04 0.02 0.01 0.01 0.01 0.02 0.02 0.02 0.02 0.03 0.03 0.03 0.03 0.02 0.01
0.01 0.01 0.00 0.00 0.00 0.00 0.00 0.00 0.00 0.00 0.00 0.00 0.00 0.00 0.00 0.00 0.00 0.01 0.01 0.02 0.03 0.03 0.03 0.03 0.04 0.04 0.03 0.04 0.05 0.04 0.06 0.05 0.02 0.02 0.03 0.03 0.02 0.01 0.01 0.01 0.02 0.02 0.03 0.05 0.04 0.03 0.02 0.02 0.01
0.01 0.02 0.01 0.00 0.00 0.00 0.00 0.00 0.00 0.00 0.00 0.00 0.00 0.00 0.00 0.00 0.01 0.01 0.02 0.03 0.03 0.03 0.03 0.03 0.02 0.02 0.02 0.03 0.04 0.02 0.02 0.02 0.01 0.01 0.01 0.01 0.01 0.02 0.02 0.01 0.02 0.02 0.04 0.09 0.09 0.05 0.03 0.02 0.01
0.01 0.01 0.01 0.00 0.00 0.00 0.00 0.00 0.00 0.00 0.00 0.00 0.01 0.01 0.00 0.00 0.01 0.02 0.04 0.04 0.04 0.04 0.04 0.03 0.02 0.02 0.02 0.02 0.02 0.02 0.02 0.01 0.01 0.01 0.01 0.00 0.01 0.01 0.02 0.02 0.03 0.02 0.03 0.09 0.13 0.09 0.05 0.04 0.03
0.01 0.01 0.01 0.01 0.00 0.00 0.00 0.00 0.00 0.00 0.00 0.00 0.00 0.00 0.01 0.01 0.01 0.03 0.04 0.05 0.05 0.04 0.03 0.03 0.03 0.03 0.03 0.02 0.02 0.01 0.01 0.00 0.01 0.01 0.01 0.01 0.00 0.00 0.01 0.01 0.01 0.01 0.02 0.06 0.14 0.16 0.09 0.04 0.02
0.01 0.01 0.01 0.01 0.01 0.00 0.00 0.00 0.00 0.00 0.00 0.00 0.00 0.00 0.01 0.02 0.02 0.03 0.03 0.05 0.06 0.04 0.03 0.03 0.03 0.03 0.03 0.02 0.02 0.01 0.01 0.00 0.01 0.01 0.01 0.00 0.00 0.00 0.00 0.00 0.01 0.01 0.02 0.05 0.11 0.16 0.14 0.05 0.02
0.01 0.01 0.00 0.00 0.01 0.01 0.01 0.00 0.00 0.00 0.01 0.01 0.01 0.01 0.01 0.02 0.03 0.03 0.03 0.06 0.09 0.08 0.04 0.03 0.03 0.04 0.04 0.04 0.03 0.02 0.01 0.01 0.01 0.01 0.01 0.01 0.00 0.00 0.00 0.01 0.00 0.00 0.02 0.03 0.07 0.13 0.14 0.10 0.04
0.01 0.01 0.00 0.00 0.01 0.01 0.02 0.01 0.01 0.01 0.01 0.01 0.02 0.02 0.02 0.02 0.02 0.03 0.04 0.06 0.12 0.11 0.07 0.04 0.04 0.03 0.04 0.04 0.05 0.05 0.03 0.01 0.01 0.01 0.02 0.02 0.01 0.00 0.00 0.00 0.00 0.00 0.01 0.03 0.04 0.09 0.12 0.11 0.08
0.01 0.01 0.00 0.01 0.01 0.02 0.02 0.02 0.02 0.01 0.01 0.01 0.03 0.03 0.02 0.03 0.02 0.02 0.03 0.05 0.11 0.13 0.10 0.07 0.05 0.04 0.04 0.04 0.04 0.04 0.04 0.03 0.02 0.02 0.02 0.02 0.02 0.01 0.01 0.00 0.00 0.00 0.00 0.02 0.03 0.05 0.09 0.10 0.08
0.01 0.01 0.01 0.01 0.01 0.02 0.01 0.01 0.01 0.01 0.01 0.01 0.02 0.03 0.02 0.02 0.02 0.02 0.02 0.05 0.06 0.11 0.11 0.09 0.07 0.06 0.05 0.04 0.04 0.04 0.04 0.04 0.04 0.03 0.03 0.02 0.02 0.02 0.02 0.01 0.00 0.00 0.00 0.01 0.03 0.03 0.04 0.06 0.06
0.02 0.03 0.02 0.01 0.01 0.01 0.01 0.02 0.01 0.01 0.01 0.01 0.01 0.01 0.01 0.01 0.01 0.01 0.01 0.05 0.05 0.09 0.09 0.08 0.09 0.08 0.07 0.06 0.06 0.05 0.04 0.05 0.05 0.05 0.05 0.03 0.03 0.02 0.02 0.02 0.01 0.00 0.00 0.00 0.01 0.03 0.03 0.03 0.04
0.03 0.03 0.02 0.01 0.00 0.01 0.01 0.01 0.01 0.01 0.01 0.01 0.01 0.01 0.01 0.01 0.01 0.01 0.01 0.04 0.06 0.08 0.09 0.06 0.07 0.08 0.09 0.08 0.07 0.07 0.06 0.06 0.06 0.05 0.05 0.05 0.04 0.03 0.04 0.03 0.02 0.01 0.01 0.01 0.01 0.01 0.02 0.02 0.02
0.02 0.01 0.01 0.00 0.00 0.00 0.01 0.01 0.00 0.01 0.01 0.01 0.01 0.01 0.01 0.01 0.01 0.01 0.01 0.04 0.06 0.07 0.09 0.07 0.06 0.06 0.07 0.09 0.10 0.09 0.08 0.07 0.06 0.05 0.05 0.05 0.05 0.04 0.04 0.04 0.03 0.01 0.01 0.01 0.01 0.01 0.02 0.02 0.02
0.01 0.01 0.01 0.00 0.00 0.01 0.01 0.00 0.00 0.01 0.01 0.02 0.01 0.01 0.01 0.01 0.01 0.01 0.02 0.03 0.06 0.06 0.07 0.07 0.06 0.06 0.07 0.07 0.09 0.10 0.09 0.09 0.07 0.06 0.06 0.07 0.09 0.09 0.07 0.06 0.05 0.04 0.03 0.02 0.01 0.02 0.02 0.03 0.02
0.02 0.02 0.01 0.00 0.00 0.01 0.01 0.00 0.00 0.00 0.01 0.02 0.01 0.01 0.01 0.01 0.01 0.02 0.02 0.03 0.04 0.05 0.05 0.04 0.04 0.04 0.06 0.08 0.08 0.08 0.08 0.09 0.08 0.05 0.05 0.06 0.09 0.12 0.13 0.12 0.10 0.08 0.06 0.04 0.03 0.02 0.03 0.02 0.02
0.02 0.02 0.01 0.01 0.00 0.01 0.01 0.01 0.00 0.00 0.01 0.02 0.01 0.01 0.01 0.01 0.01 0.02 0.03 0.02 0.03 0.04 0.04 0.03 0.03 0.02 0.03 0.07 0.09 0.08 0.07 0.08 0.09 0.07 0.04 0.04 0.05 0.09 0.12 0.13 0.12 0.10 0.08 0.07 0.05 0.03 0.02 0.03 0.02
0.02 0.01 0.01 0.01 0.02 0.02 0.01 0.01 0.00 0.00 0.01 0.01 0.01 0.01 0.01 0.01 0.02 0.02 0.02 0.02 0.02 0.02 0.02 0.02 0.03 0.03 0.03 0.04 0.07 0.10 0.09 0.07 0.07 0.07 0.07 0.04 0.03 0.05 0.08 0.10 0.12 0.11 0.10 0.09 0.07 0.05 0.03 0.03 0.03
0.01 0.01 0.02 0.02 0.02 0.02 0.02 0.01 0.00 0.00 0.01 0.01 0.01 0.01 0.01 0.01 0.02 0.02 0.01 0.01 0.01 0.01 0.02 0.02 0.02 0.03 0.03 0.03 0.04 0.06 0.10 0.10 0.07 0.06 0.07 0.08 0.05 0.03 0.03 0.04 0.06 0.08 0.07 0.07 0.07 0.08 0.06 0.05 0.03
0.02 0.03 0.03 0.03 0.04 0.04 0.01 0.01 0.01 0.01 0.02 0.01 0.01 0.01 0.01 0.01 0.01 0.01 0.01 0.01 0.01 0.01 0.01 0.01 0.02 0.02 0.02 0.03 0.03 0.03 0.05 0.08 0.09 0.08 0.07 0.07 0.07 0.07 0.05 0.03 0.04 0.04 0.05 0.04 0.04 0.05 0.06 0.04 0.03
0.03 0.04 0.05 0.04 0.03 0.02 0.00 0.01 0.01 0.01 0.01 0.01 0.01 0.01 0.01 0.01 0.01 0.01 0.01 0.01 0.01 0.02 0.02 0.02 0.02 0.02 0.02 0.02 0.02 0.02 0.02 0.04 0.06 0.07 0.06 0.05 0.05 0.05 0.06 0.05 0.05 0.05 0.05 0.04 0.04 0.04 0.04 0.04 0.02
0.02 0.02 0.03 0.02 0.01 0.01 0.00 0.01 0.01 0.01 0.01 0.01 0.01 0.01 0.01 0.01 0.02 0.01 0.02 0.01 0.01 0.02 0.02 0.02 0.02 0.02 0.02 0.02 0.02 0.02 0.02 0.03 0.04 0.05 0.05 0.04 0.04 0.03 0.03 0.03 0.04 0.04 0.05 0.04 0.04 0.04 0.04 0.03 0.02
0.01 0.01 0.02 0.03 0.02 0.01 0.01 0.01 0.01 0.00 0.00 0.00 0.01 0.01 0.01 0.01 0.02 0.02 0.02 0.02 0.01 0.01 0.01 0.02 0.01 0.02 0.02 0.02 0.03 0.03 0.02 0.02 0.03 0.04 0.04 0.04 0.04 0.04 0.04 0.03 0.03 0.03 0.03 0.04 0.04 0.04 0.03 0.02 0.02
0.01 0.01 0.01 0.02 0.02 0.02 0.01 0.01 0.01 0.01 0.00 0.00 0.00 0.01 0.01 0.01 0.02 0.02 0.02 0.02 0.02 0.02 0.01 0.01 0.01 0.02 0.02 0.02 0.02 0.03 0.04 0.03 0.03 0.03 0.04 0.04 0.04 0.03 0.04 0.04 0.03 0.03 0.03 0.03 0.03 0.03 0.02 0.01 0.01
0.01 0.01 0.01 0.01 0.02 0.03 0.02 0.02 0.02 0.01 0.01 0.01 0.01 0.01 0.01 0.02 0.02 0.02 0.02 0.02 0.02 0.02 0.01 0.01 0.01 0.02 0.02 0.02 0.02 0.03 0.03 0.04 0.04 0.03 0.03 0.03 0.04 0.03 0.03 0.03 0.03 0.02 0.02 0.02 0.02 0.02 0.01 0.01 0.01
0.01 0.01 0.02 0.02 0.02 0.02 0.02 0.03 0.03 0.02 0.01 0.01 0.01 0.01 0.01 0.01 0.01 0.01 0.01 0.02 0.02 0.02 0.01 0.01 0.01 0.02 0.02 0.02 0.03 0.03 0.03 0.03 0.04 0.04 0.04 0.03 0.03 0.03 0.03 0.02 0.02 0.02 0.02 0.02 0.02 0.01 0.01 0.01 0.00
MSLP
1011.02 1011.79 1012.71 1013.68 1014.57 1015.28 1015.71 1015.85 1015.71 1015.37 1014.93 1014.48 1014.11 1013.85 1013.69 1013.60 1013.53 1013.42 1013.26 1013.06 1012.85 1012.71 1012.69 1012.83 1013.15 1013.58 1014.08 1014.57 1014.99 1015.27 1015.42 1015.45 1015.43 1015.40 1015.42 1015.52 1015.69 1015.92 1016.17 1016.40 1016.60 1016.75 1016.87 1017.00 1017.15 1017.34 1017.59 1017.88 1018.19
1011.35 1012.18 1013.11 1014.04 1014.83 1015.39 1015.63 1015.57 1015.23 1014.71 1014.13 1013.59 1013.18 1012.94 1012.84 1012.85 1012.89 1012.92 1012.89 1012.81 1012.71 1012.66 1012.70 1012.89 1013.23 1013.69 1014.22 1014.73 1015.17 1015.49 1015.67 1015.74 1015.74 1015.72 1015.74 1015.82 1015.96 1016.15 1016.37 1016.57 1016.75 1016.90 1017.04 1017.19 1017.37 1017.60 1017.88 1018.19 1018.52
1011.67 1012.51 1013.41 1014.25 1014.92 1015.32 1015.40 1015.18 1014.70 1014.07 1013.42 1012.86 1012.46 1012.25 1012.22 1012.31 1012.46 1012.59 1012.68 1012.70 1012.70 1012.73 1012.84 1013.07 1013.44 1013.92 1014.45 1014.97 1015.43 1015.76 1015.97 1016.05 1016.07 1016.05 1016.05 1016.09 1016.19 1016.33 1016.49 1016.66 1016.82 1016.98 1017.15 1017.35 1017.58 1017.87 1018.20 1018.56 1018.92
1011.89 1012.70 1013.53 1014.26 1014.80 1015.06 1015.03 1014.71 1014.17 1013.52 1012.88 1012.35 1012.01 1011.86 1011.90 1012.07 1012.29 1012.50 1012.66 1012.77 1012.85 1012.94 1013.10 1013.37 1013.76 1014.24 1014.77 1015.29 1015.74 1016.07 1016.28 1016.37 1016.38 1016.36 1016.33 1016.33 1016.38 1016.47 1016.58 1016.72 1016.87 1017.05 1017.27 1017.52 1017.83 1018.20 1018.60 1019.01 1019.41
1011.93 1012.68 1013.41 1014.02 1014.44 1014.60 1014.51 1014.17 1013.66 1013.08 1012.53 1012.10 1011.84 1011.78 1011.88 1012.09 1012.36 1012.61 1012.82 1012.97 1013.10 1013.25 1013.45 1013.75 1014.15 1014.63 1015.14 1015.64 1016.07 1016.39 1016.59 1016.68 1016.68 1016.65 1016.60 1016.57 1016.58 1016.62 1016.71 1016.83 1016.99 1017.20 1017.46 1017.79 1018.18 1018.62 1019.09 1019.56 1019.99
1011.75 1012.42 1013.03 1013.52 1013.84 1013.95 1013.85 1013.56 1013.16 1012.72 1012.32 1012.03 1011.90 1011.92 1012.07 1012.31 1012.59 1012.84 1013.06 1013.24 1013.40 1013.58 1013.82 1014.14 1014.55 1015.02 1015.51 1015.99 1016.39 1016.69 1016.87 1016.96 1016.97 1016.93 1016.88 1016.85 1016.84 1016.87 1016.94 1017.06 1017.23 1017.47 1017.78 1018.17 1018.63 1019.13 1019.66 1020.17 1020.64
1011.37 1011.92 1012.41 1012.79 1013.04 1013.13 1013.07 1012.89 1012.64 1012.38 1012.17 1012.06 1012.05 1012.16 1012.35 1012.60 1012.85 1013.08 1013.29 1013.47 1013.65 1013.86 1014.13 1014.48 1014.90 1015.37 1015.85 1016.30 1016.67 1016.96 1017.14 1017.24 1017.26 1017.24 1017.22 1017.19 1017.20 1017.24 1017.31 1017.45 1017.64 1017.91 1018.26 1018.69 1019.19 1019.73 1020.29 1020.82 1021.29
1010.86 1011.29 1011.66 1011.94 1012.13 1012.22 1012.23 1012.17 1012.10 1012.03 1012.01 1012.06 1012.18 1012.36 1012.58 1012.81 1013.03 1013.23 1013.42 1013.59 1013.79 1014.04 1014.35 1014.73 1015.18 1015.66 1016.13 1016.57 1016.93 1017.22 1017.41 1017.52 1017.58 1017.61 1017.62 1017.64 1017.68 1017.75 1017.85 1018.00 1018.21 1018.50 1018.86 1019.31 1019.82 1020.38 1020.94 1021.47 1021.93
1010.30 1010.62 1010.88 1011.08 1011.23 1011.33 1011.40 1011.46 1011.54 1011.64 1011.79 1011.98 1012.19 1012.43 1012.66 1012.88 1013.07 1013.24 1013.40 1013.58 1013.81 1014.10 1014.46 1014.89 1015.37 1015.87 1016.36 1016.81 1017.18 1017.47 1017.69 1017.84 1017.95 1018.03 1018.11 1018.18 1018.27 1018.38 1018.51 1018.68 1018.90 1019.19 1019.56 1020.00 1020.50 1021.04 1021.58 1022.09 1022.54
1009.78 1010.01 1010.19 1010.33 1010.45 1010.56 1010.68 1010.82 1011.01 1011.23 1011.49 1011.77 1012.06 1012.32 1012.56 1012.76 1012.94 1013.09 1013.25 1013.46 1013.72 1014.06 1014.48 1014.97 1015.50 1016.04 1016.56 1017.03 1017.42 1017.75 1018.00 1018.20 1018.37 1018.52 1018.65 1018.79 1018.93 1019.08 1019.24 1019.43 1019.66 1019.95 1020.30 1020.72 1021.19 1021.70 1022.21 1022.70 1023.13
1009.36 1009.54 1009.67 1009.78 1009.87 1009.98 1010.12 1010.31 1010.54 1010.83 1011.14 1011.47 1011.78 1012.07 1012.31 1012.51 1012.68 1012.84 1013.02 1013.26 1013.57 1013.97 1014.45 1015.00 1015.59 1016.17 1016.73 1017.23 1017.67 1018.03 1018.34 1018.59 1018.82 1019.03 1019.23 1019.42 1019.61 1019.80 1019.99 1020.19 1020.43 1020.70 1021.04 1021.43 1021.88 1022.36 1022.85 1023.31 1023.73
1009.04 1009.21 1009.34 1009.44 1009.53 1009.63 1009.76 1009.94 1010.17 1010.45 1010.77 1011.10 1011.42 1011.71 1011.96 1012.17 1012.36 1012.55 1012.77 1013.05 1013.41 1013.86 1014.40 1015.00 1015.63 1016.27 1016.87 1017.42 1017.90 1018.31 1018.67 1018.98 1019.26 1019.53 1019.78 1020.02 1020.24 1020.46 1020.68 1020.90 1021.14 1021.42 1021.75 1022.13 1022.56 1023.02 1023.50 1023.96 1024.39
1008.77 1008.98 1009.15 1009.27 1009.37 1009.46 1009.57 1009.71 1009.90 1010.14 1010.42 1010.72 1011.03 1011.32 1011.58 1011.82 1012.05 1012.28 1012.54 1012.87 1013.27 1013.76 1014.33 1014.96 1015.63 1016.30 1016.95 1017.54 1018.07 1018.55 1018.96 1019.33 1019.66 1019.97 1020.27 1020.54 1020.79 1021.04 1021.28 1021.52 1021.78 1022.07 1022.41 1022.80 1023.24 1023.71 1024.19 1024.67 1025.11
1008.48 1008.77 1009.01 1009.19 1009.32 1009.41 1009.49 1009.57 1009.70 1009.87 1010.09 1010.35 1010.65 1010.95 1011.24 1011.52 1011.80 1012.07 1012.38 1012.73 1013.15 1013.65 1014.23 1014.87 1015.55 1016.24 1016.92 1017.57 1018.16 1018.69 1019.17 1019.60 1019.99 1020.34 1020.66 1020.96 1021.24 1021.50 1021.77 1022.03 1022.33 1022.66 1023.03 1023.46 1023.92 1024.42 1024.93 1025.44 1025.91
1008.10 1008.48 1008.82 1009.08 1009.25 1009.36 1009.41 1009.45 1009.51 1009.62 1009.79 1010.03 1010.32 1010.64 1010.98 1011.31 1011.63 1011.95 1012.27 1012.63 1013.04 1013.51 1014.06 1014.68 1015.35 1016.06 1016.77 1017.46 1018.12 1018.72 1019.27 1019.77 1020.21 1020.61 1020.96 1021.28 1021.58 1021.87 1022.16 1022.46 1022.80 1023.18 1023.60 1024.08 1024.60 1025.14 1025.69 1026.23 1026.73
1007.59 1008.07 1008.51 1008.85 1009.09 1009.23 1009.28 1009.29 1009.31 1009.38 1009.53 1009.76 1010.06 1010.42 1010.81 1011.19 1011.55 1011.89 1012.21 1012.54 1012.91 1013.32 1013.81 1014.38 1015.03 1015.73 1016.47 1017.21 1017.94 1018.63 1019.27 1019.84 1020.34 1020.79 1021.18 1021.52 1021.85 1022.15 1022.47 1022.82 1023.20 1023.63 1024.12 1024.66 1025.23 1025.83 1026.43 1027.00 1027.52
1006.96 1007.53 1008.06 1008.49 1008.80 1008.98 1009.05 1009.07 1009.09 1009.16 1009.32 1009.57 1009.92 1010.33 1010.76 1011.19 1011.57 1011.90 1012.19 1012.47 1012.75 1013.08 1013.48 1013.99 1014.59 1015.28 1016.05 1016.84 1017.65 1018.43 1019.16 1019.82 1020.40 1020.90 1021.33 1021.71 1022.06 1022.39 1022.74 1023.12 1023.55 1024.03 1024.58 1025.17 1025.80 1026.44 1027.08 1027.68 1028.23
1006.26 1006.90 1007.51 1008.02 1008.39 1008.63 1008.76 1008.82 1008.88 1009.00 1009.21 1009.52 1009.93 1010.39 1010.88 1011.33 1011.71 1012.01 1012.23 1012.42 1012.59 1012.81 1013.12 1013.54 1014.09 1014.77 1015.55 1016.40 1017.28 1018.15 1018.97 1019.73 1020.39 1020.96 1021.45 1021.87 1022.25 1022.61 1022.98 1023.39 1023.85 1024.37 1024.96 1025.59 1026.26 1026.94 1027.60 1028.22 1028.79
1005.58 1006.26 1006.92 1007.49 1007.94 1008.26 1008.46 1008.61 1008.76 1008.97 1009.27 1009.67 1010.15 1010.68 1011.19 1011.65 1012.00 1012.24 1012.37 1012.44 1012.50 1012.59 1012.79 1013.12 1013.61 1014.27 1015.05 1015.94 1016.88 1017.83 1018.74 1019.59 1020.33 1020.98 1021.53 1022.00 1022.41 1022.80 1023.20 1023.62 1024.10 1024.63 1025.23 1025.89 1026.57 1027.27 1027.95 1028.59 1029.17
1004.97 1005.67 1006.36 1006.99 1007.51 1007.92 1008.23 1008.51 1008.79 1009.13 1009.55 1010.07 1010.64 1011.22 1011.75 1012.19 1012.49 1012.64 1012.67 1012.61 1012.53 1012.50 1012.58 1012.81 1013.24 1013.85 1014.62 1015.52 1016.50 1017.50 1018.47 1019.39 1020.21 1020.93 1021.55 1022.08 1022.54 1022.96 1023.37 1023.80 1024.28 1024.81 1025.40 1026.04 1026.72 1027.42 1028.11 1028.77 1029.37
1004.45 1005.14 1005.86 1006.53 1007.13 1007.65 1008.11 1008.55 1009.01 1009.52 1010.11 1010.75 1011.41 1012.04 1012.58 1012.98 1013.20 1013.24 1013.14 1012.95 1012.74 1012.58 1012.55 1012.68 1013.02 1013.57 1014.29 1015.17 1016.14 1017.15 1018.16 1019.12 1020.01 1020.79 1021.48 1022.08 1022.59 1023.05 1023.49 1023.92 1024.38 1024.89 1025.45 1026.06 1026.72 1027.41 1028.10 1028.77 1029.40
1003.98 1004.65 1005.38 1006.10 1006.79 1007.45 1008.08 1008.72 1009.39 1010.12 1010.88 1011.67 1012.43 1013.11 1013.64 1013.98 1014.11 1014.05 1013.82 1013.50 1013.16 1012.87 1012.72 1012.75 1012.99 1013.44 1014.08 1014.88 1015.79 1016.77 1017.77 1018.75 1019.67 1020.52 1021.28 1021.95 1022.53 1023.04 1023.51 1023.95 1024.39 1024.87 1025.38 1025.95 1026.58 1027.24 1027.93 1028.62 1029.28
1003.46 1004.10 1004.83 1005.60 1006.41 1007.22 1008.07 1008.94 1009.86 1010.82 1011.80 1012.74 1013.60 1014.32 1014.84 1015.13 1015.17 1014.99 1014.64 1014.20 1013.74 1013.35 1013.08 1012.99 1013.11 1013.44 1013.95 1014.63 1015.43 1016.33 1017.27 1018.23 1019.17 1020.07 1020.90 1021.65 1022.31 1022.90 1023.41 1023.87 1024.30 1024.75 1025.22 1025.75 1026.33 1026.97 1027.65 1028.35 1029.05
1002.78 1003.37 1004.10 1004.94 1005.87 1006.87 1007.95 1009.09 1010.29 1011.51 1012.71 1013.82 1014.79 1015.56 1016.07 1016.31 1016.27 1015.99 1015.54 1015.00 1014.44 1013.94 1013.57 1013.36 1013.35 1013.52 1013.87 1014.39 1015.04 1015.80 1016.65 1017.56 1018.49 1019.43 1020.33 1021.17 1021.93 1022.60 1023.18 1023.67 1024.12 1024.54 1024.98 1025.46 1026.00 1026.61 1027.28 1027.99 1028.72
1001.88 1002.40 1003.13 1004.03 1005.09 1006.30 1007.63 1009.06 1010.55 1012.05 1013.48 1014.78 1015.87 1016.69 1017.20 1017.40 1017.30 1016.95 1016.42 1015.80 1015.16 1014.58 1014.11 1013.78 1013.63 1013.63 1013.80 1014.13 1014.59 1015.20 1015.92 1016.75 1017.66 1018.62 1019.58 1020.52 1021.38 1022.15 1022.81 1023.37 1023.83 1024.25 1024.67 1025.11 1025.61 1026.19 1026.84 1027.55 1028.30
1000.75 1001.20 1001.91 1002.88 1004.09 1005.50 1007.09 1008.81 1010.60 1012.36 1014.03 1015.51 1016.72 1017.61 1018.14 1018.33 1018.19 1017.79 1017.21 1016.54 1015.85 1015.20 1014.65 1014.21 1013.91 1013.75 1013.73 1013.85 1014.12 1014.54 1015.12 1015.86 1016.72 1017.69 1018.71 1019.73 1020.69 1021.57 1022.32 1022.94 1023.45 1023.88 1024.28 1024.70 1025.17 1025.71 1026.34 1027.05 1027.79
999.52 999.88 1000.58 1001.61 1002.95 1004.56 1006.40 1008.39 1010.45 1012.47 1014.35 1016.00 1017.33 1018.29 1018.86 1019.05 1018.90 1018.48 1017.88 1017.19 1016.47 1015.78 1015.15 1014.62 1014.20 1013.88 1013.67 1013.60 1013.67 1013.91 1014.34 1014.96 1015.77 1016.72 1017.77 1018.85 1019.91 1020.87 1021.71 1022.41 1022.96 1023.42 1023.83 1024.23 1024.67 1025.19 1025.79 1026.47 1027.20
998.37 998.66 999.35 1000.44 1001.89 1003.68 1005.73 1007.94 1010.23 1012.45 1014.51 1016.30 1017.74 1018.76 1019.37 1019.59 1019.45 1019.04 1018.45 1017.75 1017.02 1016.31 1015.65 1015.04 1014.51 1014.05 1013.69 1013.43 1013.32 1013.39 1013.67 1014.17 1014.90 1015.80 1016.85 1017.96 1019.07 1020.10 1021.01 1021.77 1022.38 1022.87 1023.29 1023.68 1024.11 1024.60 1025.18 1025.83 1026.54
997.58 997.83 998.52 999.66 1001.22 1003.13 1005.32 1007.70 1010.13 1012.50 1014.67 1016.55 1018.06 1019.13 1019.78 1020.02 1019.91 1019.53 1018.96 1018.29 1017.57 1016.85 1016.16 1015.51 1014.89 1014.33 1013.83 1013.43 1013.17 1013.08 1013.21 1013.58 1014.20 1015.03 1016.03 1017.13 1018.24 1019.30 1020.24 1021.04 1021.69 1022.22 1022.66 1023.06 1023.48 1023.96 1024.50 1025.12 1025.80
997.40 997.64 998.37 999.56 1001.18 1003.16 1005.43 1007.88 1010.37 1012.79 1015.00 1016.90 1018.42 1019.52 1020.19 1020.45 1020.37 1020.02 1019.49 1018.85 1018.16 1017.45 1016.75 1016.06 1015.39 1014.76 1014.16 1013.65 1013.26 1013.03 1013.03 1013.27 1013.76 1014.48 1015.39 1016.41 1017.47 1018.50 1019.44 1020.26 1020.93 1021.48 1021.94 1022.37 1022.79 1023.26 1023.79 1024.38 1025.01
Thickness
5682 5682 5681 5672 5654 5637 5639 5647 5653 5656 5659 5662 5664 5663 5661 5660 5659 5660 5664 5670 5671 5671 5671 5670 5669 5669 5668 5667 5667 5667 5667 5667 5668 5668 5669 5669 5670 5671 5672 5673 5674 5675 5676 5677 5678 5678 5679 5680 5680
5676 5676 5668 5655 5639 5630 5637 5646 5649 5656 5658 5657 5657 5659 5658 5656 5657 5658 5660 5664 5666 5667 5666 5666 5665 5665 5664 5663 5663 5663 5662 5663 5663 5663 5663 5664 5664 5665 5666 5667 5668 5669 5670 5671 5672 5672 5673 5674 5674
5671 5667 5653 5639 5630 5633 5642 5646 5647 5651 5652 5652 5650 5651 5653 5652 5653 5654 5657 5659 5661 5661 5661 5661 5661 5660 5659 5658 5658 5658 5658 5658 5658 5658 5658 5658 5659 5659 5660 5660 5662 5663 5663 5664 5665 5666 5666 5667 5667
5661 5651 5640 5630 5631 5635 5641 5644 5644 5644 5646 5645 5644 5644 5647 5649 5649 5651 5653 5655 5655 5655 5656 5656 5656 5655 5654 5653 5653 5653 5653 5652 5652 5652 5652 5653 5653 5653 5653 5654 5655 5656 5657 5658 5659 5659 5659 5660 5661
5649 5637 5626 5620 5627 5632 5634 5637 5639 5640 5639 5639 5638 5638 5641 5643 5645 5647 5648 5649 5650 5649 5650 5650 5650 5649 5648 5648 5647 5647 5647 5647 5646 5646 5646 5647 5647 5647 5647 5647 5648 5649 5650 5651 5652 5652 5653 5653 5653
5632 5625 5614 5615 5623 5627 5629 5633 5633 5632 5632 5632 5632 5632 5636 5637 5639 5640 5642 5642 5643 5643 5643 5644 5644 5643 5642 5642 5642 5641 5641 5640 5640 5640 5640 5640 5640 5640 5640 5641 5641 5642 5643 5644 5644 5645 5645 5646 5646
5622 5615 5611 5614 5616 5620 5626 5627 5625 5625 5625 5626 5628 5627 5630 5631 5631 5633 5634 5635 5635 5636 5636 5636 5637 5636 5636 5636 5636 5635 5634 5634 5633 5633 5633 5632 5632 5633 5633 5633 5634 5635 5635 5636 5636 5637 5637 5637 5638
5617 5608 5605 5604 5610 5617 5622 5622 5623 5622 5622 5623 5623 5622 5624 5625 5625 5626 5626 5626 5627 5628 5629 5629 5629 5629 5629 5629 5628 5628 5627 5627 5626 5626 5625 5625 5625 5625 5625 5626 5626 5627 5628 5628 5629 5629 5629 5629 5630
5612 5600 5600 5605 5607 5613 5615 5614 5615 5617 5614 5615 5616 5619 5621 5619 5618 5618 5617 5617 5618 5621 5622 5622 5623 5623 5622 5622 5621 5621 5620 5619 5618 5618 5618 5618 5617 5617 5617 5618 5618 5619 5619 5620 5620 5621 5621 5621 5621
5599 5593 5603 5607 5608 5608 5607 5607 5606 5607 5607 5607 5609 5609 5610 5611 5611 5612 5612 5612 5612 5613 5614 5616 5616 5616 5615 5615 5614 5613 5613 5612 5611 5611 5611 5611 5610 5609 5609 5610 5610 5610 5611 5611 5611 5612 5612 5612 5612
5591 5592 5599 5600 5602 5602 5600 5599 5599 5600 5600 5603 5605 5604 5602 5603 5604 5605 5606 5607 5608 5607 5608 5609 5609 5609 5608 5607 5607 5606 5605 5605 5604 5604 5603 5603 5603 5602 5601 5601 5601 5601 5602 5601 5602 5602 5602 5603 5604
5581 5585 5589 5592 5593 5593 5592 5592 5590 5593 5599 5603 5602 5599 5597 5596 5598 5600 5600 5600 5600 5600 5601 5602 5603 5602 5601 5601 5600 5599 5599 5598 5597 5597 5596 5596 5595 5594 5593 5593 5592 5592 5592 5592 5592 5593 5592 5593 5594
5575 5578 5581 5582 5582 5582 5582 5582 5583 5586 5589 5591 5591 5588 5588 5589 5591 5592 5594 5594 5594 5593 5595 5595 5596 5596 5594 5594 5593 5592 5592 5591 5590 5589 5589 5589 5588 5586 5585 5584 5584 5583 5583 5583 5583 5583 5583 5583 5584
5568 5569 5571 5573 5574 5575 5574 5574 5575 5581 5580 5580 5581 5579 5580 5581 5583 5583 5584 5585 5586 5587 5587 5588 5589 5589 5588 5587 5586 5585 5585 5584 5583 5582 5582 5581 5580 5579 5578 5576 5575 5575 5575 5574 5574 5573 5573 5573 5574
5560 5560 5563 5565 5567 5566 5566 5566 5567 5571 5569 5569 5569 5570 5570 5572 5573 5575 5577 5579 5580 5581 5581 5581 5581 5581 5580 5580 5579 5578 5577 5577 5576 5575 5574 5573 5573 5571 5570 5568 5567 5566 5566 5565 5564 5563 5564 5563 5564
5552 5550 5550 5557 5558 5557 5557 5560 5565 5560 5559 5557 5558 5559 5560 5562 5564 5568 5570 5572 5573 5574 5575 5575 5574 5574 5573 5572 5572 5571 5570 5569 5568 5567 5567 5565 5564 5564 5562 5560 5559 5557 5557 5557 5556 5554 5553 5552 5553
5539 5536 5541 5546 5549 5547 5545 5549 5554 5549 5549 5549 5549 5550 5551 5553 5556 5559 5561 5563 5565 5568 5569 5568 5567 5567 5566 5564 5563 5563 5562 5561 5560 5559 5559 5558 5557 5556 5555 5553 5550 5549 5548 5547 5547 5545 5544 5542 5542
5532 5531 5532 5535 5538 5536 5534 5536 5542 5540 5539 5539 5539 5540 5543 5546 5550 5552 5554 5555 5557 5559 5560 5560 5559 5559 5557 5555 5554 5553 5552 5552 5551 5551 5551 5550 5549 5548 5547 5545 5543 5542 5540 5538 5537 5535 5534 5533 5532
5527 5525 5525 5527 5529 5526 5525 5528 5535 5533 5531 5531 5531 5532 5535 5539 5542 5543 5546 5547 5549 5550 5550 5551 5551 5550 5549 5547 5546 5544 5543 5542 5542 5542 5542 5542 5541 5540 5539 5537 5535 5533 5532 5530 5528 5527 5524 5522 5522
5518 5516 5515 5518 5520 5518 5514 5518 5525 5527 5526 5526 5526 5526 5528 5531 5532 5534 5536 5538 5540 5540 5541 5542 5542 5542 5542 5541 5539 5537 5535 5534 5533 5533 5532 5532 5532 5532 5531 5530 5528 5526 5523 5520 5519 5518 5514 5512 5512
5509 5508 5507 5508 5510 5509 5505 5513 5519 5522 5520 5519 5518 5519 5520 5523 5524 5525 5527 5529 5530 5532 5533 5534 5534 5534 5533 5532 5530 5528 5526 5524 5523 5523 5523 5523 5524 5523 5523 5521 5520 5518 5516 5513 5511 5510 5509 5504 5501
5500 5502 5500 5500 5496 5493 5498 5496 5513 5512 5511 5513 5510 5509 5511 5513 5515 5516 5518 5519 5522 5523 5524 5525 5525 5525 5524 5523 5522 5522 5521 5519 5517 5517 5515 5515 5515 5514 5514 5513 5512 5509 5508 5506 5503 5502 5501 5498 5494
5490 5491 5489 5488 5485 5480 5482 5481 5500 5499 5503 5507 5504 5502 5502 5503 5506 5508 5509 5510 5512 5513 5514 5515 5516 5516 5515 5515 5514 5514 5513 5512 5509 5508 5506 5506 5506 5505 5505 5504 5503 5501 5499 5496 5494 5492 5491 5490 5488
5480 5479 5477 5471 5469 5472 5476 5473 5486 5485 5493 5498 5498 5495 5495 5495 5496 5498 5499 5500 5501 5502 5504 5505 5507 5506 5505 5505 5505 5505 5505 5503 5501 5499 5497 5497 5496 5495 5495 5495 5494 5492 5490 5487 5485 5484 5482 5480 5478
5469 5467 5466 5465 5460 5466 5466 5465 5473 5481 5483 5485 5486 5486 5486 5487 5487 5488 5489 5490 5491 5492 5493 5494 5495 5496 5496 5496 5496 5496 5496 5495 5494 5492 5490 5488 5487 5486 5485 5485 5484 5482 5481 5478 5476 5474 5472 5470 5468
5456 5459 5457 5455 5454 5454 5452 5455 5467 5471 5471 5471 5473 5474 5475 5475 5477 5479 5480 5481 5481 5482 5482 5484 5485 5486 5486 5486 5486 5486 5486 5485 5484 5483 5482 5480 5479 5478 5477 5475 5474 5472 5471 5468 5466 5463 5462 5460 5458
5448 5445 5447 5440 5434 5437 5445 5445 5456 5460 5459 5459 5460 5461 5462 5465 5467 5469 5470 5471 5471 5472 5472 5473 5475 5476 5476 5476 5476 5475 5475 5475 5474 5473 5472 5471 5469 5468 5467 5466 5464 5462 5460 5459 5456 5453 5451 5448 5447
5440 5435 5428 5432 5437 5440 5440 5439 5450 5451 5449 5449 5448 5448 5449 5452 5456 5458 5460 5461 5462 5462 5462 5464 5464 5465 5465 5466 5466 5466 5465 5464 5463 5462 5461 5460 5459 5458 5457 5455 5453 5452 5450 5448 5446 5443 5440 5437 5434
5427 5425 5424 5420 5422 5427 5430 5440 5440 5440 5438 5436 5437 5436 5437 5439 5442 5445 5447 5449 5450 5451 5452 5452 5453 5454 5454 5454 5454 5454 5453 5452 5451 5450 5449 5449 5448 5446 5446 5444 5443 5441 5439 5437 5435 5432 5429 5426 5423
5421 5417 5413 5419 5415 5407 5415 5426 5428 5424 5423 5423 5424 5426 5428 5429 5431 5432 5435 5437 5438 5439 5440 5441 5442 5443 5443 5443 5443 5443 5442 5441 5440 5439 5437 5436 5436 5434 5434 5433 5431 5430 5428 5426 5424 5421 5418 5415 5412